DB0MAK-13 Weather Reports


time (UTC)temp
C
wind
direction
speed
KPH
gust
KPH
rain 1hr
cm
rain 24hr
cm
rain mn
cm
humidity
%
barometer
mb
20260507081810 10 218 14.5 32.2 0.00 0.43 0.00 90 1009.4
20260507081405 10 219 17.7 32.2 0.00 0.43 0.00 90 1009.5
20260507080405 10 226 12.9 27.4 0.00 0.43 0.00 91 1009.4
20260507075707 10 219 6.4 27.4 0.00 0.43 0.00 92 1009.2
20260507075405 10 219 12.9 27.4 0.00 0.43 0.00 92 1009.2
20260507075007 9 233 9.7 22.5 0.00 0.43 0.00 92 1009.2
20260507074405 9 214 6.4 22.5 0.00 0.43 0.00 92 1009.2
20260507074310 9 211 6.4 22.5 0.00 0.43 0.00 92 1009.1
20260507073607 9 212 9.7 27.4 0.00 0.43 0.00 92 1009.1
20260507073405 9 221 14.5 27.4 0.00 0.43 0.00 92 1009.1
20260507072405 9 204 6.4 22.5 0.00 0.43 0.00 92 1009.0
20260507071509 9 202 4.8 25.7 0.00 0.43 0.00 92 1009.0
20260507071405 9 218 6.4 25.7 0.00 0.43 0.00 92 1008.9
20260507070809 9 222 12.9 25.7 0.00 0.43 0.00 92 1008.9
20260507070405 8 201 9.7 25.7 0.00 0.43 0.00 92 1008.9
20260507070109 8 204 9.7 25.7 0.00 0.43 0.00 92 1008.9
20260507065405 8 231 4.8 19.3 0.00 0.43 0.00 92 1008.7
20260507064707 8 215 4.8 25.7 0.00 0.43 0.00 92 1008.7
20260507064405 8 213 9.7 27.4 0.00 0.43 0.00 91 1008.7
20260507064007 8 223 14.5 27.4 0.00 0.43 0.00 91 1008.7
20260507063405 8 224 9.7 25.7 0.00 0.43 0.00 91 1008.7
20260507063309 8 212 9.7 25.7 0.00 0.43 0.00 91 1008.7
20260507062607 9 208 6.4 25.7 0.00 0.43 0.00 90 1008.5
20260507062405 9 219 6.4 25.7 0.00 0.43 0.00 90 1008.5
20260507061909 9 212 12.9 27.4 0.00 0.43 0.00 90 1008.5
20260507061405 9 219 14.5 27.4 0.00 0.43 0.00 90 1008.2
20260507060507 9 192 9.7 30.6 0.00 0.43 0.00 91 1008.2
20260507060405 9 200 19.3 30.6 0.00 0.43 0.00 91 1008.1
20260507055405 9 223 12.9 32.2 0.00 0.43 0.00 91 1007.9
20260507055109 9 204 6.4 27.4 0.00 0.43 0.00 92 1007.9
20260507054405 9 209 6.4 25.7 0.00 0.43 0.00 92 1007.7
20260507053405 8 227 4.8 25.7 0.00 0.43 0.00 92 1007.7
20260507053009 8 235 6.4 25.7 0.00 0.43 0.00 92 1007.7
20260507052405 8 232 12.9 25.7 0.00 0.43 0.00 92 1007.7
20260507052307 8 226 12.9 25.7 0.00 0.43 0.00 92 1007.7
20260507051607 8 223 12.9 27.4 0.00 0.43 0.00 92 1007.7
20260507051405 8 228 12.9 27.4 0.00 0.43 0.00 91 1007.7
20260507050907 8 225 12.9 25.7 0.00 0.43 0.00 92 1007.6
20260507050405 8 241 4.8 27.4 0.00 0.43 0.00 92 1007.6
20260507050207 8 232 6.4 27.4 0.00 0.43 0.00 91 1007.6
20260507045509 8 237 9.7 22.5 0.00 0.43 0.00 91 1007.6
20260507045405 8 237 9.7 22.5 0.00 0.43 0.00 92 1007.7
20260507044809 8 222 6.4 27.4 0.00 0.43 0.00 92 1007.6
20260507044405 8 234 6.4 27.4 0.00 0.43 0.00 92 1007.6
20260507044110 8 227 9.7 27.4 0.00 0.43 0.00 92 1007.6
20260507043405 8 218 4.8 25.7 0.00 0.43 0.00 91 1007.5
20260507042707 8 239 9.7 25.7 0.00 0.43 0.00 91 1007.4
20260507042405 8 242 9.7 25.7 0.00 0.41 0.00 91 1007.2
20260507041405 8 268 9.7 27.4 0.00 0.41 0.00 91 1007.2
20260507041309 8 253 9.7 27.4 0.00 0.41 0.00 91 1007.2
20260507040405 8 234 9.7 25.7 0.00 0.41 0.00 92 1007.1
20260507035907 8 242 12.9 19.3 0.00 0.41 0.00 92 1007.0
20260507035405 8 234 6.4 19.3 0.00 0.41 0.00 92 1007.0
20260507034405 9 231 12.9 22.5 0.00 0.43 0.00 91 1007.0
20260507033405 9 246 4.8 19.3 0.00 0.43 0.00 91 1006.7
20260507032405 9 241 6.4 27.4 0.00 0.43 0.00 91 1006.7
20260507031707 9 232 9.7 27.4 0.00 0.43 0.00 91 1006.9
20260507031405 9 252 6.4 22.5 0.00 0.43 0.00 91 1006.7
20260507030405 9 251 4.8 17.7 0.00 0.43 0.00 92 1006.7
20260507025607 10 243 6.4 19.3 0.00 0.43 0.00 92 1006.7
20260507025405 10 259 6.4 19.3 0.00 0.43 0.00 92 1006.7
20260507024909 10 259 9.7 19.3 0.00 0.43 0.00 92 1006.7
20260507024405 10 238 4.8 14.5 0.00 0.43 0.00 92 1006.6
20260507024207 10 253 1.6 17.7 0.00 0.43 0.00 92 1006.5
20260507023509 10 253 9.7 17.7 0.00 0.43 0.00 92 1006.6
20260507023405 10 254 9.7 17.7 0.00 0.43 0.00 92 1006.7
20260507022405 10 217 1.6 14.5 0.00 0.43 0.00 92 1006.7
20260507022109 10 236 4.8 14.5 0.00 0.43 0.00 92 1006.7
20260507021405 10 0 0.0 22.5 0.00 0.43 0.00 92 1006.4
20260507020709 10 219 6.4 22.5 0.00 0.43 0.00 92 1006.4
20260507020405 10 199 4.8 22.5 0.00 0.43 0.00 92 1006.2
20260507015405 10 221 4.8 14.5 0.00 0.43 0.00 92 1006.2
20260507014405 10 225 9.7 25.7 0.00 0.43 0.00 92 1006.2
20260507013907 10 236 1.6 19.3 0.00 0.43 0.00 92 1006.2
20260507013405 10 226 6.4 19.3 0.00 0.43 0.00 92 1006.4
20260507013207 10 221 6.4 19.3 0.00 0.43 0.00 92 1006.2
20260507012405 10 223 1.6 22.5 0.00 0.43 0.00 92 1006.2
20260507011405 10 249 6.4 25.7 0.00 0.43 0.00 92 1006.2
20260507011109 10 225 9.7 25.7 0.00 0.43 0.00 92 1006.2
20260507010405 10 214 4.8 25.7 0.00 0.43 0.00 92 1006.2
20260507005405 10 230 6.4 22.5 0.00 0.43 0.00 93 1006.2
20260507005009 10 214 6.4 22.5 0.00 0.43 0.00 92 1006.2
20260507004405 10 224 4.8 22.5 0.00 0.43 0.00 92 1006.2
20260507004309 10 223 6.4 22.5 0.00 0.43 0.00 92 1006.2
20260507003609 10 232 6.4 22.5 0.00 0.43 0.00 92 1006.2
20260507003405 10 210 4.8 22.5 0.00 0.43 0.00 92 1006.1
20260507002405 10 0 0.0 12.9 0.00 0.43 0.00 92 1006.1
20260507001510 10 216 1.6 19.3 0.00 0.43 0.00 92 1006.2
20260507001405 10 212 1.6 19.3 0.00 0.43 0.00 92 1006.2
20260507000405 10 214 6.4 19.3 0.00 0.43 0.00 92 1006.2
20260506235405 10 220 4.8 17.7 0.00 0.43 0.00 92 1006.2
20260506234405 10 226 12.9 25.7 0.00 0.43 0.00 92 1006.2
20260506233405 10 220 12.9 27.4 0.00 0.41 0.00 92 1006.2
20260506233309 10 221 6.4 25.7 0.00 0.41 0.00 92 1006.2
20260506232405 11 224 4.8 17.7 0.00 0.41 0.00 92 1006.2
20260506231909 11 250 1.6 22.5 0.00 0.41 0.00 92 1006.2
20260506231405 11 250 6.4 22.5 0.00 0.41 0.00 92 1006.1
20260506230509 11 0 0.0 12.9 0.00 0.41 0.00 92 1006.1
20260506230405 11 0 0.0 12.9 0.00 0.41 0.00 92 1006.1
20260506225807 11 199 1.6 12.9 0.00 0.41 0.00 92 1006.0
20260506225405 11 228 1.6 17.7 0.00 0.41 0.00 92 1006.0
20260506224405 11 248 1.6 12.9 0.00 0.41 0.00 92 1006.0
20260506223405 11 214 1.6 12.9 0.00 0.41 0.00 92 1005.9
20260506222405 11 248 6.4 17.7 0.00 0.41 0.00 92 1005.7
20260506222307 11 260 4.8 17.7 0.00 0.41 0.00 92 1005.7
20260506221609 11 265 4.8 17.7 0.00 0.41 0.00 92 1005.9
20260506221405 11 256 4.8 17.7 0.00 0.41 0.00 92 1005.7
20260506220405 11 0 0.0 9.7 0.05 0.41 0.00 92 1005.7
20260506220207 11 0 0.0 9.7 0.05 0.41 0.00 92 1005.7
20260506215405 11 0 0.0 9.7 0.18 0.41 0.00 92 1005.7
20260506214405 11 248 1.6 12.9 0.25 0.41 0.00 92 1005.7
20260506214109 11 252 4.8 12.9 0.25 0.41 0.00 92 1005.7
20260506213405 11 243 6.4 17.7 0.25 0.38 0.00 92 1005.9
20260506212405 11 231 4.8 17.7 0.28 0.38 0.00 92 1005.9
20260506212007 11 232 1.6 19.3 0.28 0.38 0.00 92 1005.9
20260506211405 11 232 6.4 19.3 0.28 0.36 0.00 91 1005.9
20260506211309 11 240 6.4 19.3 0.30 0.36 0.00 91 1005.7
20260506210609 11 241 6.4 19.3 0.25 0.36 0.00 91 1005.9
20260506210405 11 238 6.4 25.7 0.25 0.30 0.00 91 1005.9
20260506205909 11 223 6.4 25.7 0.20 0.25 0.00 91 1005.7
20260506205405 11 214 4.8 25.7 0.18 0.23 0.00 91 1005.9
20260506205209 11 225 6.4 27.4 0.18 0.20 0.00 91 1005.9
20260506204509 11 230 9.7 27.4 0.05 0.13 0.00 90 1005.7
20260506204405 11 221 9.7 27.4 0.05 0.13 0.00 90 1005.7
20260506203405 11 220 1.6 9.7 0.03 0.08 0.00 90 1005.7
20260506202405 11 0 0.0 6.4 0.00 0.05 0.00 90 1005.6
20260506201405 11 250 4.8 9.7 0.00 0.05 0.00 89 1005.6
20260506201009 11 0 0.0 12.9 0.00 0.03 0.00 89 1005.5
20260506200405 11 206 1.6 12.9 0.00 0.03 0.00 89 1005.5
20260506200307 11 205 4.8 12.9 0.00 0.03 0.00 89 1005.5
20260506195609 11 222 1.6 17.7 0.00 0.03 0.00 89 1005.2
20260506195405 11 236 1.6 17.7 0.00 0.03 0.00 89 1005.2
20260506194909 11 224 4.8 17.7 0.00 0.03 0.00 89 1005.0
20260506194405 12 218 6.4 12.9 0.00 0.03 0.00 89 1004.9
20260506194207 12 224 6.4 12.9 0.00 0.03 0.00 89 1004.9
20260506193509 12 0 0.0 4.8 0.00 0.03 0.00 89 1004.7
20260506193405 12 0 0.0 4.8 0.00 0.03 0.00 89 1004.7
20260506192405 11 285 1.6 9.7 0.00 0.03 0.00 90 1004.6
20260506191405 11 318 1.6 6.4 0.00 0.03 0.00 90 1004.5
20260506190405 11 0 0.0 9.7 0.00 0.03 0.00 90 1004.4
20260506190009 11 0 0.0 9.7 0.00 0.03 0.00 89 1004.4
20260506185405 12 0 0.0 0.0 0.00 0.03 0.00 88 1004.4
20260506185307 12 0 0.0 0.0 0.00 0.03 0.00 88 1004.4
20260506184607 12 0 0.0 0.0 0.00 0.03 0.00 89 1004.2
20260506184405 12 0 0.0 12.9 0.00 0.03 0.00 89 1004.2
20260506183909 12 291 4.8 12.9 0.00 0.03 0.00 89 1004.1
20260506183405 12 0 0.0 6.4 0.00 0.03 0.00 89 1004.0
20260506183207 12 0 0.0 6.4 0.00 0.03 0.00 90 1004.0
20260506182405 12 318 1.6 9.7 0.00 0.05 0.00 90 1003.9
20260506181807 12 324 1.6 9.7 0.00 0.05 0.00 90 1003.7
20260506181405 12 322 1.6 9.7 0.00 0.08 0.00 89 1003.7
20260506180405 12 0 0.0 4.8 0.00 0.18 0.00 89 1003.7
20260506175707 12 0 0.0 6.4 0.00 0.25 0.00 89 1004.0
20260506175405 12 324 1.6 6.4 0.00 0.36 0.00 89 1004.1
20260506175007 12 0 0.0 4.8 0.00 0.51 0.00 88 1003.9
20260506174405 12 0 0.0 4.8 0.00 0.71 0.00 87 1003.9
20260506174309 12 0 0.0 4.8 0.00 0.71 0.00 87 1003.9
20260506173611 13 0 0.0 4.8 0.00 0.84 0.00 84 1004.0
20260506173405 13 0 0.0 4.8 0.00 0.84 0.00 83 1004.0
20260506172907 13 0 0.0 9.7 0.00 0.81 0.00 82 1004.1
20260506172405 13 259 1.6 12.9 0.00 0.81 0.00 81 1004.0
20260506172207 13 0 0.0 12.9 0.00 0.81 0.00 81 1004.0
20260506171507 13 268 4.8 19.3 0.00 0.81 0.00 80 1003.7
20260506171405 13 265 4.8 19.3 0.00 0.81 0.00 80 1003.7
20260506170809 13 303 4.8 17.7 0.00 0.81 0.00 79 1003.6
20260506170405 14 296 6.4 22.5 0.00 0.81 0.00 78 1003.6
20260506170109 14 0 0.0 22.5 0.00 0.81 0.00 77 1003.6
20260506165405 15 316 6.4 17.7 0.00 0.81 0.00 75 1003.5
20260506164405 15 304 6.4 17.7 0.00 0.81 0.00 72 1003.5
20260506164007 15 304 4.8 14.5 0.00 0.81 0.00 72 1003.5
20260506163405 15 317 4.8 12.9 0.00 0.81 0.00 71 1003.4
20260506162609 15 320 1.6 14.5 0.00 0.81 0.00 70 1003.4
20260506162405 15 319 1.6 14.5 0.00 0.81 0.00 69 1003.4
20260506161405 16 314 4.8 14.5 0.00 0.81 0.00 68 1003.4
20260506161207 16 308 4.8 9.7 0.00 0.81 0.00 68 1003.5
20260506160507 16 326 1.6 9.7 0.00 0.81 0.00 68 1003.5
20260506160405 16 0 0.0 6.4 0.00 0.81 0.00 68 1003.5
20260506155809 16 0 0.0 4.8 0.00 0.81 0.00 68 1003.5
20260506155405 16 0 0.0 4.8 0.00 0.81 0.00 69 1003.5
20260506154405 16 0 0.0 9.7 0.00 0.81 0.00 69 1003.6
20260506153405 16 0 0.0 9.7 0.00 0.81 0.00 69 1003.6
20260506152405 16 324 1.6 14.5 0.00 0.81 0.00 66 1003.5
20260506152307 16 324 4.8 14.5 0.00 0.81 0.00 66 1003.6
20260506151607 16 0 0.0 9.7 0.00 0.81 0.00 66 1003.5
20260506151405 16 0 0.0 9.7 0.00 0.81 0.00 66 1003.6
20260506150907 16 297 1.6 9.7 0.00 0.81 0.00 65 1003.5
20260506150405 16 0 0.0 4.8 0.00 0.81 0.00 63 1003.6
20260506150207 16 0 0.0 6.4 0.00 0.81 0.00 63 1003.6
20260506145405 16 257 1.6 12.9 0.00 0.81 0.00 64 1003.7
20260506144809 16 311 1.6 14.5 0.00 0.81 0.00 65 1003.7
20260506144405 16 307 1.6 14.5 0.00 0.81 0.00 65 1003.7
20260506143405 17 233 4.8 12.9 0.00 0.81 0.00 62 1003.7
20260506142707 16 221 1.6 6.4 0.00 0.81 0.00 62 1003.6
20260506142405 16 0 0.0 4.8 0.00 0.81 0.00 62 1003.7
20260506142007 17 0 0.0 1.6 0.00 0.81 0.00 64 1003.6
20260506141405 17 239 4.8 14.5 0.00 0.81 0.00 61 1003.7
20260506140607 16 195 6.4 14.5 0.00 0.81 0.00 62 1003.7
20260506140405 16 178 1.6 14.5 0.00 0.81 0.00 63 1003.7
20260506135907 16 208 4.8 17.7 0.00 0.81 0.00 62 1004.0
20260506135405 16 153 6.4 17.7 0.00 0.81 0.00 62 1004.0
20260506135207 16 168 4.8 12.9 0.00 0.81 0.00 61 1004.0
20260506134507 16 212 4.8 12.9 0.00 0.81 0.00 62 1004.0
20260506134405 16 209 6.4 12.9 0.00 0.81 0.00 62 1004.1
20260506133809 16 0 0.0 12.9 0.00 0.81 0.00 64 1004.1
20260506133405 16 207 4.8 19.3 0.00 0.81 0.00 62 1004.1
20260506133109 16 190 1.6 19.3 0.00 0.81 0.00 62 1004.2
20260506132405 16 205 4.8 22.5 0.00 0.81 0.00 63 1005.2
20260506131707 16 174 4.8 19.3 0.00 0.81 0.00 63 1005.2
20260506131405 16 238 4.8 19.3 0.00 0.81 0.00 62 1005.2
20260506131007 16 261 9.7 19.3 0.00 0.81 0.00 62 1005.2
20260506130405 16 207 4.8 25.7 0.00 0.81 0.00 61 1005.2
20260506130307 16 206 4.8 25.7 0.00 0.81 0.00 61 1005.4
20260506125405 16 198 9.7 25.7 0.00 0.81 0.00 61 1005.4
20260506124405 16 185 1.6 17.7 0.00 0.81 0.00 62 1005.2
20260506124207 16 211 4.8 17.7 0.00 0.81 0.00 63 1005.2
20260506123507 16 142 4.8 25.7 0.00 0.81 0.00 62 1005.2
20260506123405 16 144 6.4 25.7 0.00 0.81 0.00 61 1005.2
20260506122809 16 141 12.9 25.7 0.00 0.81 0.00 62 1005.2
20260506122405 16 202 4.8 22.5 0.00 0.81 0.00 63 1005.2
20260506122109 16 222 4.8 22.5 0.00 0.81 0.00 63 1005.4
20260506121405 16 206 4.8 22.5 0.00 0.81 0.00 66 1005.4
20260506120405 16 210 1.6 14.5 0.00 0.81 0.00 70 1005.4
20260506120007 15 0 0.0 19.3 0.00 0.81 0.00 69 1005.4
20260506115405 16 207 6.4 25.7 0.00 0.81 0.00 68 1005.6
20260506115307 16 221 6.4 25.7 0.00 0.81 0.00 68 1005.5
20260506114609 16 214 1.6 25.7 0.00 0.81 0.00 69 1005.6
20260506114405 16 218 6.4 27.4 0.00 0.81 0.00 70 1005.6
20260506113405 15 148 9.7 19.3 0.00 0.81 0.00 71 1005.6
20260506113207 15 156 9.7 19.3 0.00 0.81 0.00 71 1005.6
20260506112509 15 235 9.7 19.3 0.00 0.81 0.00 71 1005.7
20260506112404 15 238 6.4 19.3 0.00 0.81 0.00 72 1005.7
20260506111809 15 248 9.7 22.5 0.00 0.81 0.00 71 1005.7
20260506111405 15 228 9.7 22.5 0.00 0.81 0.00 71 1005.7
20260506111107 16 243 6.4 22.5 0.00 0.81 0.00 71 1005.6
20260506110405 15 156 9.7 19.3 0.00 0.81 0.00 70 1005.7
20260506105405 15 147 1.6 25.7 0.00 0.81 0.00 73 1005.7
20260506105007 15 195 9.7 22.5 0.00 0.81 0.00 72 1005.7
20260506104405 15 197 12.9 19.3 0.00 0.81 0.00 72 1005.7
20260506104309 15 213 9.7 19.3 0.00 0.81 0.00 72 1005.7
20260506103607 15 165 6.4 25.7 0.00 0.81 0.00 74 1005.9
20260506103405 15 178 9.7 25.7 0.00 0.81 0.00 74 1005.9
20260506102907 15 189 6.4 22.5 0.00 0.81 0.00 74 1005.9
20260506102405 15 197 6.4 22.5 0.00 0.81 0.00 75 1005.9
20260506101509 14 172 6.4 17.7 0.00 0.81 0.00 77 1005.9
20260506101404 14 166 6.4 17.7 0.00 0.81 0.00 77 1005.9
20260506100809 14 196 6.4 19.3 0.00 0.81 0.00 75 1005.7
20260506100405 14 209 1.6 19.3 0.00 0.81 0.00 77 1005.7
20260506100109 14 200 4.8 19.3 0.00 0.81 0.00 76 1005.9
20260506095405 14 162 6.4 22.5 0.00 0.81 0.00 75 1005.7
20260506094707 14 204 4.8 27.4 0.00 0.81 0.00 75 1005.7
20260506094404 14 208 9.7 27.4 0.00 0.81 0.00 75 1005.7
20260506094007 14 199 9.7 27.4 0.00 0.81 0.00 75 1005.7
20260506093404 14 212 9.7 27.4 0.00 0.81 0.00 74 1005.7
20260506093307 14 202 6.4 27.4 0.00 0.81 0.00 75 1005.7
20260506092607 14 240 4.8 19.3 0.00 0.81 0.00 75 1005.6
20260506092404 14 241 6.4 19.3 0.00 0.81 0.00 77 1005.7
20260506091909 13 206 4.8 12.9 0.00 0.81 0.00 77 1005.7
20260506091404 13 202 1.6 17.7 0.00 0.81 0.00 78 1005.6
20260506091207 13 214 4.8 17.7 0.00 0.81 0.00 78 1005.6
20260506090404 13 213 4.8 12.9 0.00 0.81 0.00 78 1005.7
20260506085807 13 0 0.0 9.7 0.00 0.81 0.00 78 1005.7
20260506085404 13 206 1.6 9.7 0.00 0.81 0.00 80 1005.7
20260506084405 13 145 1.6 12.9 0.00 0.81 0.00 80 1005.7
20260506083404 13 209 4.8 19.3 0.00 0.81 0.00 82 1005.7
20260506083007 12 183 9.7 19.3 0.00 0.81 0.00 81 1005.7
20260506082404 12 196 1.6 19.3 0.00 0.81 0.00 82 1005.7
20260506082307 12 203 1.6 19.3 0.00 0.81 0.00 82 1005.7